Flag for Canada Weather past 2 weeks in Kugluktuk, Nunavut, Canada

1 °F

Snow flurries. Ice fog.

Feels Like: -13 °F
Forecast: -15 / 2 °F
Wind: 8 mph from Northeast

Location: Coppermine

Current Time: Nov 29, 2015 at 5:03:38 PM

Latest Report: Nov 29, 2015 at 4:00 PM

Visibility: 5 mi

Pressure: 29.88 "Hg

Humidity: 92%

Dew point: 0 °F

Location of KugluktukLocation

Historic Weather in Kugluktuk — Graph


Kugluktuk temperature yesterday

Maximum temperature yesterday: 12 °F (at 3:00 AM)
Minimum temperature yesterday: 0 °F (at 2:00 PM)
Average temperature yesterday: 8 °F

Past Weeks' High & Low Weather Summary

High14 °F (Nov 16, 6:00 AM)92% (Nov 15, 10:00 AM)30.23 "Hg (Nov 15, 10:00 AM)
Low-15 °F (Nov 20, 3:00 AM)59% (Nov 20, 7:00 PM)29.29 "Hg (Nov 17, 9:00 PM)
Average2 °F81%29.89 "Hg
* Reported Nov 14 3:00 PM — Nov 29 3:00 PM, Kugluktuk, Weather by CustomWeather, © 2015

Note: Actual official high and low records may vary slightly from our data, if they occured in-between our weather recording intervals... More about our weather records


Kugluktuk weather history for previous 24 hours

Time TempWeatherWind HumidityBarometerVisibility
3:00 PM
Sun, Nov 29
3 °FSnow flurries. Ice fog.5 mph85%29.88 "Hg4 mi
2:00 PM3 °FLight snow. Overcast.5 mph92%29.86 "Hg1 mi
1:00 PM3 °FSnow flurries. Overcast.No wind85%29.86 "Hg15 mi
12:00 PM1 °FSnow flurries. Overcast.3 mph85%29.84 "Hg15 mi
11:00 AM1 °FSnow flurries. Partly cloudy.5 mph85%29.82 "Hg15 mi
10:00 AM1 °FSnow flurries. Passing clouds.5 mph92%29.79 "Hg15 mi
9:00 AM5 °FSnow flurries. Passing clouds.6 mph92%29.77 "Hg12 mi
8:00 AM7 °FLight snow. Mostly cloudy.9 mph85%29.76 "Hg2 mi
7:00 AM9 °FLight snow. Mostly cloudy.6 mph85%29.74 "Hg4 mi
6:00 AM9 °FLight snow. Overcast.6 mph85%29.72 "Hg4 mi
5:00 AM9 °FLight snow. Overcast.9 mph85%29.71 "Hg4 mi
4:00 AM7 °FLight snow. Overcast.7 mph92%29.71 "Hg4 mi
3:00 AM7 °FLight snow. Overcast.8 mph92%29.71 "Hg8 mi
2:00 AM7 °FLight snow. Partly cloudy.3 mph85%29.68 "Hg8 mi
1:00 AM7 °FLight snow. Overcast.2 mph92%29.70 "Hg5 mi
11:54 PM
Sat, Nov 28
9 °FLight snow. Mostly cloudy.No wind92%29.71 "Hg3 mi
11:00 PM9 °FLight snow. Overcast.3 mph92%29.72 "Hg4 mi
10:00 PM9 °FLight snow. Overcast.10 mph85%29.72 "Hg2 mi
9:00 PM9 °FLight snow. Overcast.8 mph85%29.75 "Hg2 mi
8:00 PM9 °FLight snow. Mostly cloudy.7 mph85%29.78 "Hg2 mi
7:00 PM7 °FOvercast.9 mph85%29.79 "Hg15 mi
6:00 PM5 °FOvercast.9 mph85%29.83 "Hg15 mi
5:00 PM3 °FOvercast.9 mph78%29.86 "Hg15 mi
Weather by CustomWeather, © 2015

See weather overviewHow to use our weather pages